Location: Rumah Geringgi
(3.1667°N, 113.1667°E)
Time: 19:15:08
(UTC+00:00)

CZ-4B R/B - Pass Details

Date: 03 August 2024
Orbit: 807 x 881 km, 99.0° (Epoch: 10 September)

Event Time Altitude Azimuth Distance (km) Brightness Sun altitude
Exits shadow 13:11:13 38° 315° (NW) 1,306 4.5 -36.1°
Drops below altitude 10° 13:14:45 10° 335° (NNW) 2,516 6.1 -36.9°
Sets 13:17:12 0° 339° (NNW) 3,458 6.9 -37.5°
